Waarnemingen

Advertentie
Mijn weer
Socoa, Frankrijk (7600): temperatuur & dauwpunt: 08.12.2018 12:00:00 - 14.12.2018 12:00:00 (CET)Socoa, Frankrijk (7600): windsnelheid & windstoten: 08.12.2018 12:00:00 - 14.12.2018 12:00:00 (CET)Socoa, Frankrijk (7600): windrichting: 08.12.2018 12:00:00 - 14.12.2018 12:00:00 (CET)Socoa, Frankrijk (7600): luchtdruk: 08.12.2018 12:00:00 - 14.12.2018 12:00:00 (CET)Socoa, Frankrijk (7600): zicht: 08.12.2018 12:00:00 - 14.12.2018 12:00:00 (CET)Socoa, Frankrijk (7600): neerslag: 08.12.2018 12:00:00 - 14.12.2018 12:00:00 (CET)
Datum & Tijd tt [°C] td [°C] ff [km/u] ff [kn] fx [km/u] fx [kn] dd ppp [hPa] vv [km] rr [mm]
14.12.2018 12:00:00 12,8 9,8 27 14 37 20 WNW 1021,3 - 0,0
14.12.2018 11:00:00 11,5 9,4 26 14 70 38 WNW 1020,6 - 0,6
14.12.2018 10:00:00 11,6 9,7 40 22 72 39 NNW 1019,7 5 2,5
14.12.2018 09:00:00 12,0 9,6 52 28 82 45 NW 1018,6 - 0,2
14.12.2018 08:00:00 12,1 9,7 49 26 71 38 NW 1017,7 - 0,6
14.12.2018 07:00:00 11,6 8,8 55 30 78 42 NW 1016,9 - 2,2
14.12.2018 06:00:00 12,2 9,9 49 26 74 40 WNW 1015,8 - 0,2
14.12.2018 05:00:00 12,2 9,9 49 26 89 48 WNW 1015,5 - 0,8
14.12.2018 04:00:00 12,2 10,1 49 26 75 40 WNW 1015,3 - 1,8
14.12.2018 03:00:00 12,9 9,0 54 29 73 39 WNW 1015,0 - 0,0
14.12.2018 02:00:00 13,0 9,3 50 27 75 40 WNW 1014,8 - 0,2
14.12.2018 01:00:00 12,7 8,8 57 31 75 40 WNW 1014,4 10 0,2
14.12.2018 00:00:00 12,5 9,5 55 30 76 41 WNW 1013,9 - 0,8
13.12.2018 23:00:00 12,7 9,3 46 25 74 40 WNW 1013,2 - 0,0
13.12.2018 22:00:00 12,6 9,2 48 26 74 40 WNW 1012,7 10 0,0
13.12.2018 21:00:00 13,0 9,1 53 29 74 40 WNW 1012,0 - 0,0
13.12.2018 20:00:00 12,3 8,6 50 27 81 44 WNW 1011,2 - 2,5
13.12.2018 19:00:00 12,2 9,0 48 26 69 37 NW 1010,7 6 1,2
13.12.2018 18:00:00 12,3 9,8 44 24 66 36 NW 1009,9 - 0,8
13.12.2018 17:00:00 11,1 8,8 44 24 82 44 WNW 1008,9 - 8,9
13.12.2018 16:00:00 11,7 10,4 55 30 76 41 W 1007,4 - 5,9
13.12.2018 15:00:00 10,0 8,8 24 13 56 31 WZW 1007,1 - 4,0
13.12.2018 14:00:00 10,1 8,5 36 20 62 33 ZW 1007,1 - 3,2
13.12.2018 13:00:00 10,9 9,2 50 27 87 47 WZW 1006,8 6 2,0
13.12.2018 12:00:00 11,5 10,1 38 21 69 37 WZW 1006,7 - 5,9
13.12.2018 11:00:00 12,4 9,8 29 16 45 24 WZW 1006,3 - 0,2
13.12.2018 10:00:00 12,0 7,9 10 5 37 20 ZW 1005,4 - 0,0
13.12.2018 09:00:00 11,8 7,3 23 12 36 20 Z 1005,0 - 0,0
13.12.2018 08:00:00 11,1 7,8 24 13 42 23 Z 1005,3 - 0,6
13.12.2018 07:00:00 10,9 8,3 13 7 27 14 Z 1006,2 8 0,8
13.12.2018 06:00:00 10,8 8,2 11 6 21 11 Z 1006,7 - 1,0
13.12.2018 05:00:00 11,5 7,6 11 6 18 10 Z 1007,3 - 0,8
13.12.2018 04:00:00 12,6 6,0 11 6 21 11 ZZO 1007,6 15 0,0
13.12.2018 03:00:00 11,5 5,6 13 7 26 14 Z 1008,3 - 0,0
13.12.2018 02:00:00 9,8 6,1 10 5 18 10 Z 1009,4 - 0,0
13.12.2018 01:00:00 10,6 7,1 3 2 15 8 O 1011,1 15 0,0
13.12.2018 00:00:00 11,4 7,3 2 1 11 6 ZZO 1011,4 - 0,0
12.12.2018 23:00:00 11,1 7,6 8 5 19 10 W 1012,7 - 0,0
12.12.2018 22:00:00 10,5 7,2 9 5 18 10 O 1012,6 15 0,0
12.12.2018 21:00:00 10,7 7,2 15 8 22 12 ZO 1014,3 - 0,0
12.12.2018 20:00:00 10,6 8,0 8 4 11 6 OZO 1015,8 - 0,0
12.12.2018 19:00:00 10,9 8,3 6 4 10 5 ZZO 1016,9 8 0,0
12.12.2018 18:00:00 11,6 8,4 4 2 7 4 Z 1017,5 - 0,0
12.12.2018 17:00:00 12,8 7,9 5 3 9 5 W 1018,3 - 0,0
12.12.2018 16:00:00 13,6 8,2 4 2 13 7 ZW 1018,5 - 0,0
12.12.2018 15:00:00 13,7 9,1 6 4 16 8 ZW 1019,1 - 0,0
12.12.2018 14:00:00 13,2 8,5 11 6 18 10 ZW 1019,7 - 0,0
12.12.2018 13:00:00 12,9 9,5 12 7 19 11 ZZW 1020,7 15 0,0
12.12.2018 12:00:00 12,3 10,2 10 5 22 12 ZZW 1021,8 - 0,0
12.12.2018 11:00:00 11,3 9,7 14 8 23 12 ZZW 1022,3 - 0,0
12.12.2018 10:00:00 11,0 9,6 13 7 34 19 ZZW 1022,5 15 1,4
12.12.2018 09:00:00 11,5 10,1 16 9 38 21 ZW 1022,5 - 0,4
12.12.2018 08:00:00 11,3 9,6 19 11 44 24 W 1022,2 - 1,4
12.12.2018 07:00:00 12,6 11,0 23 12 44 24 WZW 1022,0 - 0,0
12.12.2018 06:00:00 12,6 11,3 22 12 43 23 WZW 1021,8 - 1,6
12.12.2018 05:00:00 12,8 11,0 26 14 42 23 WZW 1022,0 - 0,0
12.12.2018 04:00:00 12,5 9,9 17 9 28 15 ZZW 1022,2 13 0,2
12.12.2018 03:00:00 13,0 9,4 22 12 32 18 WZW 1022,4 - 0,0
12.12.2018 02:00:00 13,3 6,9 18 10 32 17 ZW 1022,3 - 0,0
12.12.2018 01:00:00 12,3 6,3 19 10 40 22 ZW 1022,5 18 0,0
12.12.2018 00:00:00 12,4 8,5 29 16 44 24 WZW 1022,2 - 0,0
11.12.2018 23:00:00 12,0 6,5 27 15 43 23 WZW 1021,9 - 0,0
11.12.2018 22:00:00 11,2 4,6 28 15 39 21 WZW 1021,4 20 0,0
11.12.2018 21:00:00 7,5 5,1 11 6 15 8 ZW 1021,5 - 0,0
11.12.2018 20:00:00 8,5 6,1 6 3 11 6 ZZW 1021,2 - 0,0
11.12.2018 19:00:00 9,2 6,5 6 3 13 7 Z 1020,8 20 0,0
11.12.2018 18:00:00 10,8 6,9 6 4 13 7 OZO 1020,5 - 0,0
11.12.2018 17:00:00 12,4 6,7 5 3 11 6 O 1020,4 - 0,0
11.12.2018 16:00:00 14,0 6,8 5 3 16 9 O 1020,2 20 0,0
11.12.2018 15:00:00 13,8 6,4 8 5 16 9 NO 1020,6 - 0,0
11.12.2018 14:00:00 14,5 6,3 10 6 17 9 O 1020,7 - 0,0
11.12.2018 13:00:00 14,0 6,1 13 7 22 12 OZO 1021,3 - 0,0
11.12.2018 12:00:00 11,3 6,0 9 5 16 9 OZO 1022,4 - 0,0
11.12.2018 11:00:00 8,3 4,7 11 6 17 9 O 1023,2 - 0,0
11.12.2018 10:00:00 6,1 5,1 9 5 15 8 OZO 1023,1 14 0,0
11.12.2018 09:00:00 4,8 3,5 7 4 14 8 O 1023,0 - 0,2
11.12.2018 08:00:00 5,1 3,9 6 4 15 8 ZO 1023,2 - 0,0
11.12.2018 07:00:00 4,9 3,4 13 7 19 10 OZO 1023,6 15 0,0
11.12.2018 06:00:00 5,7 4,3 15 8 20 11 OZO 1024,6 - 0,0
11.12.2018 05:00:00 5,0 3,5 13 7 19 10 ZO 1025,6 - 0,0
11.12.2018 04:00:00 5,7 4,0 10 6 19 10 ZO 1026,5 18 0,0
11.12.2018 03:00:00 6,0 4,3 9 5 18 10 ZO 1027,1 - 0,0
11.12.2018 02:00:00 5,7 4,0 11 6 15 8 ZO 1027,5 - 0,0
11.12.2018 01:00:00 6,4 4,6 9 5 13 7 OZO 1028,1 - 0,0
11.12.2018 00:00:00 7,2 5,2 8 4 16 8 ZO 1028,8 - 0,0
10.12.2018 23:00:00 8,0 5,6 9 5 14 7 OZO 1029,1 - 0,0
10.12.2018 22:00:00 9,1 6,0 9 5 13 7 ZO 1029,6 16 0,0
10.12.2018 21:00:00 10,7 6,6 9 5 16 8 OZO 1030,1 - 0,0
10.12.2018 20:00:00 11,9 7,6 11 6 26 14 OZO 1030,8 - 0,0
10.12.2018 19:00:00 12,5 7,8 18 10 27 15 NO 1030,9 10 0,0
10.12.2018 18:00:00 13,0 8,9 17 9 24 13 NNO 1030,9 - 0,0
10.12.2018 17:00:00 13,0 7,7 14 8 21 11 NNO 1031,0 - 0,0
10.12.2018 16:00:00 13,7 7,0 13 7 18 10 NNO 1031,2 12 0,0
10.12.2018 15:00:00 13,7 6,3 14 8 19 11 N 1031,6 - 0,0
10.12.2018 14:00:00 15,0 7,0 7 4 11 6 N 1032,2 - 0,0
10.12.2018 13:00:00 14,9 9,3 6 4 11 6 N 1033,0 12 0,0
10.12.2018 12:00:00 15,2 8,7 4 2 8 4 O 1033,8 - 0,0
10.12.2018 11:00:00 13,8 9,8 3 2 7 4 ZO 1034,4 - 0,0
10.12.2018 10:00:00 11,8 9,0 3 2 8 5 Z 1034,6 7 0,0
10.12.2018 09:00:00 11,1 8,3 5 3 10 5 ZZW 1034,3 - 0,0
10.12.2018 08:00:00 11,0 8,6 10 5 16 9 ZW 1034,0 - 0,0
10.12.2018 07:00:00 10,7 8,3 5 3 14 7 ZW 1033,9 12 0,0
10.12.2018 06:00:00 10,5 7,0 10 5 16 8 WZW 1033,9 - 0,0
10.12.2018 05:00:00 12,4 7,9 7 4 21 11 WZW 1033,9 - 0,0
10.12.2018 04:00:00 13,2 8,5 16 9 26 14 WNW 1034,4 12 0,0
10.12.2018 03:00:00 13,5 9,2 16 9 25 14 WNW 1034,8 - 0,0
10.12.2018 02:00:00 13,4 8,2 21 11 27 15 NW 1034,9 - 0,0
10.12.2018 01:00:00 13,6 9,2 17 9 29 16 NW 1035,1 - 0,0
10.12.2018 00:00:00 13,7 9,1 21 11 38 20 NW 1035,0 - 0,0
09.12.2018 23:00:00 13,7 8,7 26 14 37 20 NW 1034,8 - 0,0
09.12.2018 22:00:00 13,8 9,8 24 13 55 30 NW 1034,7 14 0,0
09.12.2018 21:00:00 13,2 10,4 39 21 53 29 NW 1034,2 - 0,0
09.12.2018 20:00:00 13,6 9,2 28 15 40 22 WNW 1034,0 - 0,0
09.12.2018 19:00:00 13,4 9,6 32 18 46 25 NW 1033,3 8 0,0
09.12.2018 18:00:00 13,8 9,8 31 17 51 28 NW 1032,7 - 0,0
09.12.2018 17:00:00 14,1 9,1 36 19 51 28 WNW 1032,2 - 0,0
09.12.2018 16:00:00 14,1 8,7 43 23 69 37 NW 1031,6 11 0,0
09.12.2018 15:00:00 14,3 10,3 39 21 55 30 W 1031,2 - 0,0
09.12.2018 14:00:00 14,3 10,1 38 21 57 31 W 1031,3 - 0,0
09.12.2018 13:00:00 14,0 9,8 45 25 58 32 W 1031,6 8 0,0
09.12.2018 12:00:00 14,3 9,7 40 21 65 35 W 1031,8 - 0,0
09.12.2018 11:00:00 14,5 10,3 46 25 68 37 WNW 1031,6 - 0,0
09.12.2018 10:00:00 14,5 10,7 39 21 57 31 W 1030,8 10 0,0
09.12.2018 09:00:00 14,5 11,5 38 20 58 31 W 1030,5 - 0,0
09.12.2018 08:00:00 14,5 11,8 34 18 57 31 W 1030,2 - 0,0
09.12.2018 07:00:00 14,4 11,0 35 19 59 32 W 1029,6 15 0,0
09.12.2018 06:00:00 14,3 11,6 46 25 61 33 W 1029,4 - 0,2
09.12.2018 05:00:00 14,7 12,2 37 20 52 28 W 1029,3 - 0,2
09.12.2018 04:00:00 14,9 11,9 44 24 62 34 W 1028,9 10 0,0
09.12.2018 03:00:00 14,3 12,2 29 16 42 23 W 1028,7 - 0,0
09.12.2018 02:00:00 12,8 10,9 15 8 39 21 ZW 1028,6 - 0,2
09.12.2018 01:00:00 14,5 10,3 26 14 50 27 WZW 1029,2 14 0,0
09.12.2018 00:00:00 14,6 8,5 23 12 38 21 WZW 1028,9 - 0,0
08.12.2018 23:00:00 12,1 7,0 11 6 16 9 ZW 1028,7 - 0,0
08.12.2018 22:00:00 10,9 6,4 4 2 15 8 W 1028,1 16 0,0
08.12.2018 21:00:00 10,7 6,4 13 7 21 11 ZW 1027,8 - 0,0
08.12.2018 20:00:00 9,0 6,1 15 8 18 10 ZZW 1028,1 - 0,0
08.12.2018 19:00:00 10,0 7,2 10 5 12 7 ZZW 1028,4 15 0,0
08.12.2018 18:00:00 12,5 8,6 4 2 9 5 NNW 1027,9 - 0,0
08.12.2018 17:00:00 13,7 8,1 2 1 11 6 N 1028,0 - 0,0
08.12.2018 16:00:00 14,1 7,6 8 5 21 11 W 1028,4 15 0,0
08.12.2018 15:00:00 14,1 6,7 19 10 27 14 W 1029,4 - 0,0
08.12.2018 14:00:00 15,0 6,5 22 12 37 20 W 1030,0 - 0,0
08.12.2018 13:00:00 14,2 7,0 26 14 37 20 WZW 1030,6 - 0,0
08.12.2018 12:00:00 13,3 7,3 22 12 39 21 WZW 1031,1 - 0,0

tt = temperatuur
td = dauwpunt
ff = windsnelheid
fx = windstoten
dd = windrichting
ppp = luchtdruk
vv = zicht
rr = neerslag

Weerstations in de omgeving